Temp_Advection
nan nan nan nan nan nan nan nan nan nan nan nan nan nan nan nan nan nan nan nan nan nan nan nan nan nan nan nan nan nan nan nan nan nan nan nan nan nan nan nan nan nan nan nan nan nan nan
nan -0 -0 0 0 -0 -0 -0 -0 -0 -0 -0 0 0 -0 -0 0 -0 -0 -0 -0 -0 -0 -0 -0 0 -0 -1 -0 0 -0 0 0 -0 -1 -0 -0 -0 -0 -0 -0 0 0 0 -0 0 nan
nan 1 0 -0 -0 0 -0 -0 -0 -0 -0 -0 -0 0 -0 -0 0 -0 -0 -0 -0 -0 -0 -0 -0 0 -1 -2 0 0 0 0 -0 -0 -0 -0 -0 -0 -0 -0 0 0 -0 0 0 -0 nan
nan 1 1 -0 -1 0 0 -0 -0 -0 -0 -0 0 0 -0 -0 -0 -0 -0 -0 -0 -0 -0 -0 0 -0 -1 -1 -0 -0 -0 -0 -0 -0 0 0 0 -0 -0 -0 -0 -0 0 -0 0 -0 nan
nan 0 1 0 0 0 -0 -0 -0 -0 -0 -0 -0 0 0 -0 -0 -0 -0 -0 -0 -0 -0 -0 0 -0 -1 -0 -0 0 -0 -0 -0 0 0 0 -0 -1 -0 -0 0 0 0 0 0 -0 nan
nan -0 -0 1 1 -0 -0 -0 -0 -0 -0 -0 -0 -0 -0 -0 -0 -0 -0 -0 -0 -0 -0 -0 0 -1 -2 -0 0 0 -0 -0 -0 -0 -0 -0 -1 -0 -0 0 -0 0 -0 -0 -0 0 nan
nan 1 -1 -0 1 0 -0 -0 -0 -0 -0 -0 -0 -0 -0 -0 -0 -0 -0 0 0 -0 -1 -1 -0 -1 0 0 -0 -0 -0 -0 -0 -1 -0 -0 -0 -0 -0 -0 -0 -0 -0 -0 0 0 nan
nan 1 -0 -0 1 0 -0 -0 -0 -0 -0 -0 -0 -0 -0 -0 0 -0 -0 -0 -0 0 -1 -0 0 -0 -0 -0 -0 -0 -0 -0 -0 -0 0 -0 -0 -1 -0 0 -0 0 0 0 0 0 nan
nan -1 -1 -1 0 -0 -0 -0 -1 -0 0 -0 -0 -0 -0 -0 -0 -0 -0 -1 -0 -0 -1 -1 -1 -1 -0 -0 -1 0 -0 -0 -0 0 -0 -0 -0 -0 -0 0 -0 0 0 -0 0 0 nan
nan 0 -0 -2 -1 0 -1 -1 -0 0 0 -0 -0 0 -0 -0 0 0 -1 -0 0 -1 -1 -0 -1 -0 -0 -0 -0 0 0 -0 0 0 -0 0 0 -0 -0 0 0 1 0 0 0 0 nan
nan -0 -0 -1 -1 -1 -1 -1 -0 0 -0 -0 -0 -0 -0 0 -0 -0 0 0 0 -0 -1 1 -1 -0 -0 -0 -0 -0 -0 -0 -0 -0 0 -0 -0 -0 0 -0 0 0 -1 0 -0 -0 nan
nan -1 -0 -1 -0 -1 -1 -1 -0 0 -0 -0 -0 0 -0 -1 -1 -0 0 -0 -0 -1 -1 0 0 -0 -0 -0 0 -0 -0 0 -0 -0 0 -0 0 -0 -0 -0 -0 -0 0 0 0 1 nan
nan -0 -0 -1 -1 -1 -1 -1 -0 0 -0 -0 0 -0 -1 -0 0 0 0 -0 -1 -1 -0 -0 -0 -0 0 -0 -0 -0 -0 -0 -0 0 -0 0 0 0 0 -0 0 0 0 0 1 0 nan
nan -0 -1 -1 -1 -1 -1 -1 -0 0 0 -0 0 0 0 0 -0 -0 -0 -1 -1 -2 -0 0 -0 0 0 0 0 0 -0 -0 -1 -0 0 0 0 0 0 -0 0 0 0 1 0 -0 nan
nan -1 -1 -1 -1 -1 -1 -0 -0 0 0 0 0 0 -2 -2 -1 0 -1 -1 -2 -1 -0 0 0 0 0 0 0 0 -0 -0 0 0 0 -0 -0 0 0 0 -0 0 -0 -0 0 0 nan
nan -1 -1 -1 -1 -0 -0 -0 -0 0 -0 -0 0 -1 -4 -1 0 -0 -1 -2 -2 -0 0 0 0 -0 -0 0 -0 -0 -0 0 0 -0 -0 0 0 0 0 0 0 -0 -0 0 0 0 nan
nan -1 -1 -1 -1 -0 -0 -0 -0 0 -0 0 -1 -1 -1 1 -1 -2 -1 -2 -1 0 0 0 -0 -0 -0 -0 -0 -0 0 0 0 0 -0 0 0 0 0 -0 -0 -0 0 -0 -0 0 nan
nan -1 -1 -0 -1 -0 0 -0 -0 -0 0 1 -2 -1 1 1 -1 -2 -1 -2 -0 -0 -0 -0 -0 -0 -0 0 0 -0 -0 0 0 0 0 0 0 0 -0 0 -0 -0 -0 0 0 0 nan
nan -1 -0 -0 -0 -0 -0 0 -0 -1 -0 -0 -3 -0 -0 2 -1 -1 -2 -0 0 0 -0 -0 -0 -0 0 0 -0 -0 1 -1 0 -0 0 1 0 -0 -0 -0 -0 0 -0 0 0 0 nan
nan -0 -0 -1 -1 -1 0 0 -1 -1 -1 -1 -1 -1 -1 -1 -3 -1 -1 0 0 -0 0 -0 -0 0 0 0 0 0 0 -0 0 0 0 0 -0 0 -0 -0 0 0 -0 0 1 -0 nan
nan 0 -1 -1 -1 -0 1 -0 -1 -2 -1 0 -3 -1 -2 -2 -1 -1 0 -0 -0 -0 -0 0 0 -0 -0 0 0 0 0 -0 -0 0 -0 -0 0 -0 0 0 -0 -0 -0 0 0 -0 nan
nan -0 -1 -0 -0 0 0 -0 -1 -2 0 -1 -2 -0 -1 -1 -1 0 0 -1 -0 -1 0 -0 -0 -0 0 0 0 0 0 -0 -0 -1 -0 0 0 0 -0 -0 0 -0 -0 -0 -0 -0 nan
nan -1 -1 -0 -0 -0 0 -1 -1 -1 0 -2 -2 0 0 1 -1 -0 -1 -0 -0 -0 0 -0 0 0 1 -0 -0 -0 0 0 0 0 0 0 0 0 0 -0 -0 0 -2 -1 -0 -0 nan
nan -0 -0 -0 -0 -0 -1 -1 -2 -1 -1 -2 -1 0 0 1 -0 -0 -0 -0 0 1 -0 0 1 1 -0 1 0 0 0 0 -0 -0 0 0 0 0 0 0 -0 -1 0 -0 -0 -1 nan
nan -0 -0 -0 -0 -0 0 -0 -3 -1 -2 -1 -0 0 0 0 0 -0 0 0 1 0 0 0 -0 0 1 0 -0 -0 -0 -0 0 0 0 0 0 -0 0 -1 -1 -0 0 0 0 -0 nan
nan -0 -0 -0 0 -0 0 -2 -3 -1 -2 -0 -0 -1 -0 -1 -0 0 0 1 0 -0 -0 -0 0 1 0 0 0 -0 -0 -0 -0 0 0 -0 0 0 -0 0 -0 0 -0 0 0 0 nan
nan -0 -0 0 -1 -1 -1 -3 -2 -2 -0 1 -0 -0 0 -0 1 1 0 0 0 0 -0 -1 -0 0 -0 -0 0 -0 0 -0 0 -0 0 0 0 0 -0 -0 -1 0 -0 0 0 -0 nan
nan -0 -1 -1 -2 -2 -3 -3 -2 -1 -0 -1 -0 0 0 0 0 1 1 1 1 1 -0 -0 -1 -0 -0 -0 -0 0 0 0 -0 0 -0 -0 -0 -0 -0 -0 -1 1 -0 -0 -0 -0 nan
nan nan nan nan nan nan nan nan nan nan nan nan nan nan nan nan nan nan nan nan nan nan nan nan nan nan nan nan nan nan nan nan nan nan nan nan nan nan nan nan nan nan nan nan nan nan nan
Wind_Speed
31 29 28 25 24 21 20 21 20 18 16 17 17 16 17 17 18 19 19 21 18 16 15 12 9 8 8 6 10 6 2 8 14 16 13 12 12 13 12 13 16 12 4 2 3 5 7
38 34 31 29 27 24 21 20 20 17 16 17 17 16 16 17 17 18 19 19 16 14 13 10 8 7 6 9 1 2 2 9 8 14 14 12 10 11 8 12 13 12 9 3 7 7 7
36 39 34 30 29 26 24 20 19 18 17 18 18 15 16 16 17 17 17 17 14 13 11 7 7 7 9 15 1 3 5 5 11 15 13 13 11 6 5 6 4 5 7 11 3 10 10
26 36 39 33 31 28 25 22 20 18 18 19 18 15 15 15 16 17 15 13 12 10 8 6 5 5 10 6 8 9 10 9 11 14 13 7 10 12 10 2 9 12 12 13 19 12 8
31 28 38 39 34 31 27 24 21 19 19 19 18 15 15 15 15 16 12 9 9 7 6 4 4 3 7 7 7 4 9 4 6 8 10 8 5 11 7 11 10 7 9 14 9 8 12
36 32 28 40 37 33 30 25 23 20 20 19 18 16 16 14 15 13 9 4 5 4 5 5 6 6 8 9 3 4 5 7 4 10 8 6 10 8 10 11 8 6 11 15 13 10 10
43 40 34 30 40 37 31 28 24 22 21 20 17 16 16 14 14 10 4 2 4 4 11 12 2 7 4 3 7 8 5 6 7 12 7 8 6 11 8 10 7 13 9 13 15 6 9
45 43 38 33 36 37 34 30 27 22 22 20 18 17 15 14 13 10 10 8 7 3 8 19 17 13 12 6 4 10 6 9 9 7 8 8 13 19 7 10 9 4 5 12 9 9 9
40 40 39 34 35 40 38 32 29 24 23 21 19 17 15 14 12 14 15 17 3 5 7 12 16 11 7 9 12 16 9 8 10 15 9 8 12 6 8 10 11 8 10 11 13 11 13
41 41 38 34 36 36 40 35 31 26 24 22 21 18 16 12 9 8 12 10 10 8 5 11 9 9 8 8 8 7 6 5 7 8 12 3 6 11 13 7 5 8 4 11 4 11 13
47 44 43 38 37 38 38 36 32 29 25 23 23 19 17 12 7 9 2 4 6 4 5 16 13 8 8 13 2 11 7 7 12 7 7 8 9 9 9 5 5 17 10 7 7 11 12
52 45 45 43 39 36 41 40 35 30 26 25 24 21 18 20 23 16 7 4 6 5 7 8 10 11 11 12 7 6 12 6 7 7 7 7 3 4 7 3 2 5 4 6 6 10 7
49 49 46 42 39 41 43 43 37 29 28 26 25 22 23 21 8 11 9 6 6 9 7 12 16 14 15 10 9 11 14 14 11 8 10 7 7 4 6 7 7 9 9 8 9 8 10
43 43 47 44 41 42 39 45 40 30 30 28 26 23 25 24 14 8 10 8 12 14 13 3 15 14 12 10 9 9 12 16 17 16 13 10 9 12 8 10 5 10 13 9 7 7 11
49 44 42 45 41 43 39 47 43 31 32 29 26 24 28 31 25 12 13 10 14 9 11 9 11 13 12 9 6 11 14 14 16 12 13 10 5 6 2 3 8 9 8 7 7 3 7
47 40 38 43 42 42 41 41 44 34 35 32 24 24 30 31 28 13 8 16 19 2 5 11 16 15 14 14 11 13 12 4 7 5 5 1 2 4 5 5 6 8 2 5 6 6 11
41 52 43 42 40 41 43 39 43 37 38 30 21 11 18 27 23 16 11 17 16 9 9 11 16 12 13 13 14 15 12 9 6 7 5 6 8 7 4 10 11 7 10 7 5 3 5
40 48 40 42 42 42 43 41 42 39 38 33 25 11 21 28 16 20 14 22 11 11 10 8 7 9 11 11 13 11 13 6 8 8 10 6 5 5 13 5 5 10 8 11 5 6 3
39 48 36 42 41 41 40 41 40 41 46 39 28 18 20 28 13 13 20 21 13 10 12 12 11 9 8 10 10 11 11 6 6 8 5 7 7 7 7 6 7 9 10 9 4 1 7
38 45 42 39 40 44 39 39 40 41 46 38 28 11 11 15 30 19 23 18 17 7 9 12 10 11 10 8 6 7 8 4 5 5 0 0 12 10 10 5 1 12 12 12 13 7 9
34 33 42 41 38 43 40 38 43 41 46 35 27 15 20 13 21 21 21 19 21 12 10 15 11 15 13 8 9 8 9 6 6 6 6 5 8 12 12 5 5 8 9 13 16 15 13
30 31 38 41 42 41 38 35 44 40 46 36 22 22 28 27 33 20 19 22 23 18 14 14 10 15 11 8 11 10 12 10 7 10 9 5 5 2 5 8 8 11 12 13 14 16 16
31 32 35 38 42 41 40 32 44 45 54 30 25 21 29 21 23 18 17 19 21 15 3 5 12 8 10 5 8 10 9 4 3 7 10 5 5 4 5 3 4 6 15 16 15 16 12
32 34 34 37 37 34 40 45 45 50 57 34 18 17 16 13 17 18 19 20 17 16 11 6 7 8 6 16 16 15 13 10 7 6 5 5 4 2 1 1 1 4 1 4 8 14 16
35 33 35 34 38 36 38 46 49 53 55 37 18 16 18 4 15 24 20 18 19 11 9 13 5 5 21 10 4 4 2 2 3 3 3 3 4 2 3 6 8 9 5 1 3 6 6
32 33 35 34 33 34 44 41 50 53 55 38 13 16 18 12 13 28 19 24 10 10 7 5 10 17 6 2 2 5 4 4 5 6 3 4 1 4 3 3 4 4 4 1 1 6 7
31 32 34 31 36 47 43 37 47 52 54 35 10 15 19 14 22 18 15 17 20 12 6 8 10 5 2 2 2 3 4 2 4 5 4 3 1 5 6 3 5 3 3 2 4 3 5
30 30 31 41 50 46 37 42 51 51 50 33 9 16 19 13 10 13 14 17 22 19 7 12 8 3 3 3 3 3 1 4 2 1 5 6 6 3 2 2 5 7 6 1 4 6 7
33 33 40 43 31 39 44 45 47 52 49 28 12 20 17 11 7 7 11 15 14 18 17 20 8 13 10 4 2 2 2 2 0 3 2 3 3 1 5 1 5 7 4 4 6 9 11
Wind_Direction
249 248 256 264 271 278 284 290 292 293 269 265 272 282 291 296 300 303 307 305 302 299 292 291 290 296 304 276 266 315 193 161 173 183 192 203 213 218 225 208 205 224 232 205 273 190 227
243 247 250 255 263 270 276 283 286 286 265 264 270 280 288 294 299 304 306 303 299 295 288 283 277 289 296 260 202 261 54 193 186 187 202 212 231 240 281 207 204 204 248 128 167 132 156
250 243 245 247 253 261 271 275 280 281 263 262 268 276 286 293 297 302 304 301 298 290 279 273 274 278 267 235 193 238 232 206 209 207 221 230 241 250 283 233 248 228 190 170 131 171 168
263 247 243 245 247 248 261 268 271 272 263 263 267 272 282 289 294 300 300 298 294 285 276 266 269 277 259 260 248 244 234 254 225 230 226 250 239 249 267 341 202 213 166 152 175 184 155
266 258 244 242 242 248 250 260 265 265 261 260 266 270 279 286 291 294 295 297 288 276 261 235 257 268 261 251 268 274 222 225 207 201 211 231 206 218 198 219 192 186 200 136 168 198 175
265 264 254 241 240 244 242 251 256 260 260 258 262 266 274 281 285 287 287 289 281 261 232 238 248 257 241 208 206 222 199 178 155 174 169 179 198 219 216 215 201 158 185 183 160 165 220
265 266 261 251 235 236 240 244 248 254 256 255 256 261 270 274 278 274 245 140 280 229 222 212 276 255 154 263 253 221 188 200 165 207 216 190 226 212 185 220 272 208 193 182 130 150 216
258 261 261 249 234 234 234 237 245 246 252 250 249 254 263 267 269 248 207 221 311 349 276 234 247 262 268 277 243 219 214 227 217 233 227 163 185 237 249 223 248 226 210 118 125 171 247
257 254 253 249 235 230 232 236 242 241 247 247 242 247 254 259 257 239 219 214 296 338 254 187 225 244 237 203 218 213 213 230 224 227 215 255 162 177 201 205 219 234 227 158 167 184 242
245 253 249 248 238 228 228 231 237 234 240 242 238 240 245 244 253 228 236 224 260 287 257 164 202 206 193 207 232 232 229 279 199 283 103 227 173 191 190 191 280 189 101 212 250 196 212
239 244 249 245 234 227 222 225 230 230 234 235 233 234 236 218 184 184 170 202 219 161 232 158 158 148 174 208 93 187 206 233 246 206 250 151 180 183 204 70 297 121 245 175 195 223 231
241 240 244 242 232 231 218 221 224 228 229 230 229 230 228 215 221 180 211 190 171 225 222 169 163 183 188 201 216 137 180 210 251 254 260 169 49 327 73 122 264 139 163 207 238 257 263
240 239 239 242 233 226 220 217 220 221 223 224 225 226 227 223 211 210 193 169 210 218 155 168 187 180 203 179 186 204 183 189 205 221 217 177 163 120 176 142 146 199 224 222 223 225 236
235 237 235 236 231 226 223 218 217 214 219 221 220 224 226 218 215 196 184 201 232 212 201 151 181 187 207 166 198 206 197 205 207 230 212 208 183 182 180 256 219 219 249 248 280 274 272
235 231 232 230 229 223 223 218 218 209 215 217 216 222 229 217 199 174 206 211 217 209 195 182 188 191 199 179 230 207 214 207 199 221 261 214 155 107 237 229 269 188 247 317 297 299 282
241 237 229 225 223 221 221 218 216 206 211 210 204 218 231 214 199 192 217 226 225 241 224 197 192 199 193 194 203 204 197 172 165 241 286 250 223 187 134 212 217 275 30 217 226 258 257
233 235 230 221 220 219 220 215 216 207 207 200 192 204 224 209 184 202 213 210 224 187 197 204 205 193 220 186 203 200 192 143 197 179 237 260 250 152 173 210 226 184 231 232 298 275 281
231 233 222 217 217 215 217 215 216 209 199 192 188 209 177 181 183 204 212 214 213 183 195 209 276 190 224 189 207 220 226 219 170 190 207 207 243 181 223 79 310 302 257 206 226 212 228
229 227 224 211 213 215 214 211 215 209 196 179 193 179 177 173 196 201 212 212 193 196 195 195 203 211 213 205 207 222 217 85 176 210 223 183 225 220 224 203 216 238 228 236 223 324 238
228 229 212 206 210 218 212 211 212 212 193 180 183 180 158 197 207 196 207 194 200 219 190 196 200 180 187 200 216 196 195 156 190 206 223 133 242 227 243 269 274 208 238 218 215 225 244
225 198 198 203 206 216 209 209 206 212 189 184 207 196 180 181 200 201 205 202 197 179 222 192 190 201 198 210 192 209 187 161 184 179 196 236 236 235 261 286 290 281 256 222 233 237 257
208 196 200 204 200 209 211 205 202 203 185 200 211 192 181 171 197 208 194 215 195 192 181 192 210 201 204 202 208 217 199 192 185 181 198 202 224 252 250 241 260 262 254 251 240 249 255
199 201 202 205 201 205 208 209 201 193 185 193 209 196 180 171 192 203 192 210 196 180 208 227 210 166 202 95 60 45 75 77 126 180 197 186 172 181 243 2 297 290 239 249 247 248 253
201 202 206 205 205 206 208 199 204 194 187 187 205 178 170 177 187 195 188 211 199 182 172 157 185 188 116 124 103 84 86 89 97 71 155 167 176 167 224 218 287 257 24 306 272 264 254
202 206 205 201 200 204 213 202 203 191 184 193 198 186 184 141 186 194 192 201 195 155 140 137 78 118 143 148 130 123 111 88 116 82 128 219 164 153 184 220 286 280 177 234 233 281 37
206 203 201 203 202 208 209 205 196 185 179 193 191 202 158 150 195 191 181 198 160 155 148 100 117 131 135 129 134 194 196 217 159 148 124 94 121 224 164 214 234 78 80 100 213 251 64
200 202 201 205 202 198 202 198 184 183 179 187 200 183 167 162 190 180 195 200 195 178 151 136 159 155 170 112 122 196 202 333 187 190 189 135 220 212 204 252 283 71 137 202 241 44 13
197 205 203 180 189 203 190 173 180 179 178 190 197 175 172 158 132 187 203 188 203 201 162 139 140 149 160 169 176 179 148 194 215 200 182 188 175 188 167 208 259 141 140 214 29 313 321
206 181 171 191 186 163 169 175 178 178 175 175 184 169 167 186 127 168 184 196 198 200 204 177 205 157 177 177 73 112 125 38 82 227 183 222 231 278 216 247 113 179 315 304 305 302 306
Height
1521 1522 1524 1526 1527 1527 1527 1527 1526 1525 1524 1525 1525 1524 1524 1523 1521 1520 1517 1515 1512 1511 1510 1509 1509 1509 1509 1508 1502 1496 1495 1496 1497 1500 1503 1504 1503 1500 1496 1494 1494 1493 1487 1491 1491 1489 1489
1514 1516 1518 1521 1523 1524 1523 1523 1523 1522 1521 1522 1522 1522 1521 1520 1519 1517 1514 1513 1510 1510 1509 1508 1508 1509 1509 1508 1500 1498 1497 1498 1498 1500 1503 1504 1501 1499 1494 1492 1490 1489 1490 1493 1491 1491 1491
1506 1509 1511 1514 1517 1519 1519 1519 1520 1519 1519 1519 1518 1518 1518 1516 1516 1514 1512 1511 1509 1508 1507 1507 1508 1508 1508 1502 1500 1499 1498 1498 1500 1501 1502 1502 1502 1501 1497 1492 1491 1491 1491 1496 1493 1493 1491
1498 1501 1504 1507 1510 1512 1514 1515 1515 1515 1515 1516 1516 1516 1515 1514 1514 1512 1509 1509 1508 1507 1507 1507 1508 1508 1504 1499 1499 1499 1499 1498 1498 1500 1501 1502 1502 1502 1499 1494 1493 1489 1486 1492 1494 1491 1494
1490 1493 1496 1500 1503 1506 1508 1510 1511 1511 1511 1512 1513 1513 1512 1512 1511 1510 1507 1507 1509 1506 1506 1506 1508 1509 1502 1496 1496 1497 1497 1497 1497 1498 1500 1502 1502 1501 1498 1493 1490 1487 1496 1492 1496 1488 1492
1481 1484 1488 1491 1496 1500 1502 1504 1506 1507 1507 1508 1510 1511 1510 1509 1509 1508 1507 1506 1508 1507 1506 1506 1508 1512 1497 1495 1495 1497 1496 1497 1497 1499 1501 1501 1500 1496 1492 1487 1501 1493 1487 1488 1490 1492 1490
1472 1475 1479 1483 1487 1492 1496 1499 1500 1503 1504 1505 1506 1507 1508 1507 1507 1506 1507 1508 1512 1508 1504 1499 1500 1495 1493 1495 1494 1495 1496 1496 1497 1496 1492 1495 1493 1491 1486 1487 1485 1481 1481 1483 1483 1490 1490
1463 1466 1469 1473 1478 1484 1489 1493 1496 1497 1499 1501 1503 1504 1505 1505 1505 1505 1505 1510 1508 1505 1499 1495 1498 1496 1493 1494 1494 1492 1495 1494 1491 1488 1492 1496 1499 1491 1484 1483 1483 1480 1482 1485 1489 1494 1493
1454 1456 1460 1465 1469 1475 1481 1486 1490 1492 1495 1497 1499 1501 1502 1502 1502 1501 1502 1505 1508 1503 1499 1492 1494 1494 1492 1493 1490 1488 1492 1488 1488 1492 1487 1484 1487 1489 1488 1487 1485 1482 1483 1489 1490 1493 1491
1444 1448 1451 1456 1461 1466 1472 1480 1484 1487 1490 1493 1495 1498 1499 1500 1504 1501 1501 1504 1505 1504 1493 1488 1489 1488 1490 1490 1489 1489 1490 1490 1488 1485 1485 1491 1489 1486 1482 1485 1483 1488 1482 1489 1489 1494 1496
1431 1437 1441 1447 1452 1457 1464 1472 1478 1482 1485 1489 1492 1494 1496 1499 1498 1501 1505 1505 1505 1504 1503 1477 1480 1484 1485 1487 1485 1487 1490 1489 1486 1485 1487 1487 1485 1482 1483 1484 1486 1503 1490 1486 1487 1488 1483
1418 1426 1431 1436 1443 1449 1456 1463 1470 1477 1480 1483 1488 1491 1494 1494 1495 1496 1499 1502 1505 1502 1494 1476 1475 1479 1483 1483 1484 1484 1487 1490 1490 1487 1483 1488 1485 1483 1484 1490 1490 1491 1490 1489 1487 1485 1500
1407 1414 1420 1427 1434 1440 1447 1455 1462 1470 1475 1478 1483 1487 1489 1490 1497 1493 1497 1503 1502 1495 1471 1472 1471 1473 1476 1479 1481 1481 1483 1487 1489 1500 1492 1485 1485 1490 1490 1492 1491 1490 1492 1501 1502 1500 1504
1395 1402 1408 1416 1424 1431 1438 1447 1454 1463 1470 1474 1477 1482 1484 1486 1492 1492 1496 1497 1494 1472 1467 1462 1466 1471 1474 1473 1476 1479 1478 1481 1480 1479 1482 1487 1499 1487 1488 1486 1488 1491 1487 1499 1514 1508 1492
1383 1390 1397 1405 1413 1422 1430 1438 1447 1454 1464 1468 1474 1476 1477 1478 1485 1491 1495 1491 1478 1462 1459 1465 1466 1472 1472 1473 1475 1477 1477 1473 1474 1477 1481 1480 1488 1488 1490 1490 1489 1486 1499 1486 1496 1500 1507
1372 1379 1386 1395 1403 1412 1421 1430 1439 1446 1457 1462 1470 1472 1470 1474 1483 1489 1486 1478 1466 1461 1459 1461 1469 1465 1471 1473 1478 1475 1475 1471 1477 1481 1478 1476 1488 1486 1493 1494 1494 1493 1487 1502 1499 1519 1517
1361 1369 1376 1385 1394 1404 1412 1422 1430 1438 1449 1461 1469 1471 1465 1469 1479 1488 1473 1467 1460 1463 1463 1463 1462 1464 1463 1468 1471 1473 1471 1476 1480 1481 1481 1478 1485 1492 1495 1492 1484 1493 1494 1495 1493 1496 1508
1351 1359 1366 1376 1386 1394 1404 1413 1421 1429 1445 1455 1461 1460 1461 1463 1474 1472 1466 1460 1461 1460 1463 1462 1462 1459 1463 1464 1471 1470 1471 1471 1479 1480 1482 1480 1482 1495 1489 1484 1486 1483 1482 1486 1503 1502 1503
1342 1349 1356 1367 1377 1387 1396 1405 1413 1421 1432 1444 1451 1452 1460 1462 1459 1461 1458 1456 1458 1457 1458 1461 1462 1460 1462 1465 1473 1469 1471 1482 1485 1483 1480 1483 1486 1497 1492 1490 1487 1487 1484 1485 1486 1499 1500
1333 1340 1348 1359 1370 1379 1387 1397 1404 1413 1428 1441 1441 1441 1453 1458 1454 1453 1453 1449 1458 1456 1454 1456 1457 1460 1464 1466 1466 1470 1473 1483 1486 1484 1487 1487 1481 1484 1492 1481 1475 1487 1482 1482 1488 1498 1496
1325 1329 1341 1352 1362 1372 1381 1389 1397 1407 1424 1436 1428 1422 1427 1439 1442 1445 1447 1449 1450 1453 1455 1456 1458 1459 1461 1467 1467 1471 1471 1483 1486 1488 1488 1486 1487 1481 1478 1482 1481 1479 1478 1479 1483 1482 1488
1319 1328 1337 1347 1355 1364 1372 1381 1389 1401 1420 1428 1416 1414 1423 1432 1441 1440 1442 1442 1443 1445 1450 1453 1451 1454 1456 1462 1465 1466 1469 1474 1476 1485 1484 1486 1486 1488 1493 1483 1485 1484 1478 1476 1475 1477 1474
1317 1325 1332 1341 1350 1359 1367 1374 1383 1397 1407 1415 1414 1413 1416 1424 1433 1436 1436 1439 1439 1442 1452 1448 1450 1453 1457 1462 1466 1468 1469 1471 1471 1477 1481 1485 1491 1495 1492 1495 1493 1503 1485 1476 1473 1471 1474
1313 1320 1327 1335 1343 1352 1360 1368 1378 1389 1399 1411 1410 1412 1413 1425 1425 1432 1437 1440 1438 1441 1448 1452 1452 1452 1466 1469 1472 1474 1476 1478 1479 1481 1481 1491 1489 1494 1495 1510 1517 1470 1471 1472 1472 1468 1467
1308 1316 1324 1332 1339 1347 1355 1362 1374 1386 1399 1405 1411 1411 1417 1424 1425 1432 1435 1437 1440 1444 1449 1453 1459 1460 1465 1468 1472 1478 1482 1486 1486 1484 1485 1485 1488 1496 1503 1490 1477 1471 1471 1475 1476 1473 1469
1305 1312 1320 1327 1334 1342 1350 1360 1371 1385 1395 1403 1405 1407 1409 1419 1424 1428 1433 1438 1440 1444 1455 1461 1463 1464 1467 1468 1471 1476 1479 1472 1481 1484 1488 1489 1490 1489 1498 1503 1506 1476 1477 1479 1478 1478 1478
1303 1308 1316 1321 1328 1338 1347 1356 1371 1382 1393 1401 1407 1408 1411 1417 1423 1428 1430 1435 1440 1442 1446 1459 1464 1466 1467 1468 1478 1474 1473 1470 1479 1485 1499 1493 1494 1496 1494 1497 1482 1471 1478 1480 1485 1485 1481
1299 1303 1308 1321 1326 1336 1345 1356 1369 1380 1391 1400 1405 1406 1410 1415 1424 1429 1431 1435 1439 1440 1447 1455 1461 1463 1467 1471 1473 1470 1476 1473 1474 1472 1481 1483 1488 1495 1493 1505 1497 1477 1480 1483 1480 1480 1480
1297 1302 1309 1317 1325 1338 1348 1358 1369 1380 1391 1400 1405 1407 1412 1418 1424 1428 1431 1433 1437 1443 1444 1450 1446 1451 1456 1458 1466 1471 1482 1485 1475 1481 1476 1480 1476 1476 1479 1475 1475 1477 1477 1478 1480 1480 1480